Bridgeport, CT

4:31 AM EST on December 14, 2017 (GMT -0500)
Sikorsky Memorial

Weather History for KBDR - October, 2013

Change the Weather History Date:

Sunday, October 6, 2013

  Actual Average Record
Temperature  
Mean Temperature 65 °F 58 °F  
Max Temperature 67 °F 67 °F 86 °F (1997)
Min Temperature 63 °F 50 °F 33 °F (1965)
Degree Days  
Heating Degree Days 0 7  
Month to date heating degree days 0 39  
Since 1 July heating degree days 81 107  
Cooling Degree Days 0 1  
Month to date cooling degree days 16 6  
Year to date cooling degree days 997 822  
Growing Degree Days 14 (Base 50)    
Moisture  
Dew Point 63 °F    
Average Humidity 94    
Maximum Humidity 100    
Minimum Humidity 87    
Precipitation  
Precipitation 0.03 in 0.13 in 1.35 in (1978)
Month to date precipitation 0.05 0.71  
Year to date precipitation 29.55 33.09  
Snow  
Snow 0.00 in 0.00 in 0.00 in (2002)
Month to date snowfall 0.0 0.0  
Since 1 July snowfall 0.0 0.0  
Snow Depth 0.00 in    
Sea Level Pressure  
Sea Level Pressure 30.11 in    
Wind  
Wind Speed 12 mph (ESE)    
Max Wind Speed 18 mph    
Max Gust Speed 24 mph    
Visibility 6 miles    
Events Rain    
T = Trace of Precipitation, MM = Missing Value Source: NWS Daily Summary

Daily Weather History Graph

Daily Weather History Graph

Search for Another Location

Airport or City:

Trip Planner

Search our weather history database for the weather conditions in past years. The results will help you decide how hot, cold, wet, or windy it might be!

Date:

Astronomy

Oct. 06, 2013 Rise Set
Actual Time 6:54 AM EDT 6:25 PM EDT
Civil Twilight 6:27 AM EDT 6:53 PM EDT
Nautical Twilight 5:55 AM EDT 7:25 PM EDT
Astronomical Twilight 5:23 AM EDT 7:57 PM EDT
Moon 8:37 AM EDT (10/6) 7:21 PM EDT (10/6)
Length of Visible Light 12h 26m
Length of Day
11h 31m
Waxing Crescent, 3% of the Moon is Illuminated
Oct 6
Waxing Crescent
Oct 11
First Quarter
Oct 18
Full
Oct 26
Last Quarter
Nov 3
New

Hourly Weather History & Observations

Time (EDT) Temp. Dew Point Humidity Pressure Visibility Wind Dir Wind Speed Gust Speed Precip Events Conditions
12:52 AM 64.9 °F 63.0 °F 93% 30.10 in 7.0 mi SSE 3.5 mph - 0.00 in   Overcast
1:52 AM 64.9 °F 64.0 °F 97% 30.10 in 7.0 mi SE 3.5 mph - N/A   Overcast
2:52 AM 64.9 °F 63.0 °F 93% 30.09 in 7.0 mi ESE 4.6 mph - N/A   Overcast
3:52 AM 64.9 °F 63.0 °F 93% 30.08 in 7.0 mi SE 5.8 mph - N/A   Overcast
4:52 AM 64.9 °F 63.0 °F 93% 30.08 in 7.0 mi ESE 6.9 mph - N/A   Overcast
5:52 AM 64.9 °F 63.0 °F 93% 30.09 in 7.0 mi SE 6.9 mph - N/A   Overcast
6:52 AM 64.9 °F 63.0 °F 93% 30.10 in 8.0 mi ESE 8.1 mph - N/A   Overcast
7:52 AM 64.9 °F 63.0 °F 93% 30.11 in 8.0 mi ESE 10.4 mph - N/A   Overcast
8:10 AM 66.2 °F 62.6 °F 88% 30.11 in 9.0 mi ESE 11.5 mph - N/A   Overcast
8:52 AM 66.0 °F 62.1 °F 87% 30.13 in 8.0 mi ESE 9.2 mph - N/A   Overcast
9:52 AM 64.9 °F 62.1 °F 90% 30.14 in 10.0 mi ESE 11.5 mph 20.7 mph 0.00 in   Overcast
10:29 AM 64.4 °F 60.8 °F 88% 30.14 in 10.0 mi East 13.8 mph - N/A   Overcast
10:52 AM 64.9 °F 61.0 °F 87% 30.15 in 10.0 mi East 15.0 mph - N/A   Overcast
11:52 AM 64.0 °F 60.1 °F 87% 30.14 in 10.0 mi East 15.0 mph - N/A   Overcast
12:52 PM 64.0 °F 60.1 °F 87% 30.14 in 8.0 mi East 16.1 mph - N/A   Overcast
1:52 PM 64.0 °F 61.0 °F 90% 30.12 in 4.0 mi East 13.8 mph - N/A   Overcast
2:14 PM 64.4 °F 60.8 °F 88% 30.12 in 2.0 mi East 15.0 mph - N/A   Overcast
2:21 PM 62.6 °F 62.6 °F 100% 30.12 in 1.2 mi East 16.1 mph - N/A   Overcast
2:52 PM 63.0 °F 62.1 °F 97% 30.12 in 1.2 mi ENE 12.7 mph 23.0 mph 0.01 in Rain Light Rain
3:52 PM 63.0 °F 62.1 °F 97% 30.11 in 1.2 mi East 16.1 mph - 0.00 in Rain Light Rain
4:52 PM 64.0 °F 63.0 °F 96% 30.10 in 1.2 mi East 15.0 mph - 0.01 in   Overcast
5:41 PM 64.4 °F 62.6 °F 94% 30.10 in 2.0 mi East 15.0 mph - 0.01 in   Overcast
5:52 PM 64.0 °F 63.0 °F 96% 30.10 in 3.0 mi East 12.7 mph - 0.01 in   Overcast
6:52 PM 64.0 °F 63.0 °F 96% 30.11 in 5.0 mi East 15.0 mph - N/A   Overcast
7:52 PM 64.9 °F 64.0 °F 97% 30.11 in 5.0 mi East 15.0 mph - N/A   Overcast
8:52 PM 64.0 °F 64.0 °F 100% 30.11 in 4.0 mi East 16.1 mph - N/A   Overcast
9:52 PM 64.0 °F 63.0 °F 96% 30.10 in 10.0 mi East 16.1 mph - N/A   Overcast
10:52 PM 64.9 °F 63.0 °F 93% 30.09 in 9.0 mi East 13.8 mph - N/A   Overcast
11:52 PM 66.0 °F 64.0 °F 93% 30.07 in 7.0 mi East 13.8 mph - N/A   Overcast